FW9019 Weather Reports


Display with metric or nautical units.
time (UTC)temp
F
wind
direction
speed
MPH
gust
MPH
rain 1hr
in
rain 24hr
in
rain mn
in
humidity
%
barometer
mb
20260507232134 50 207 1.0 2.0 0.00 0.00 0.00 67 1013.3
20260507231114 51 142 2.0 7.0 0.00 0.00 0.00 66 1013.8
20260507230034 53 135 1.0 5.0 0.00 0.00 0.00 58 1014.0
20260507225116 57 120 1.0 3.0 0.00 0.00 0.00 36 1013.4
20260507224056 58 118 1.0 2.0 0.00 0.00 0.00 33 1013.1
20260507223036 58 117 1.0 3.0 0.00 0.00 0.00 32 1012.9
20260507222117 59 113 1.0 3.0 0.00 0.00 0.00 32 1012.7
20260507221117 59 116 1.0 3.0 0.00 0.00 0.00 32 1012.5
20260507220058 59 128 1.0 3.0 0.00 0.00 0.00 32 1012.6
20260507215018 59 99 1.0 3.0 0.00 0.00 0.00 32 1012.5
20260507214120 60 98 2.0 3.0 0.00 0.00 0.00 30 1012.4
20260507213040 61 100 2.0 3.0 0.00 0.00 0.00 30 1012.4
20260507212020 61 110 2.0 3.0 0.00 0.00 0.00 30 1012.6
20260507211102 60 109 1.0 3.0 0.00 0.00 0.00 31 1012.6
20260507210042 60 114 2.0 3.0 0.00 0.00 0.00 30 1012.6
20260507205022 60 117 1.0 2.0 0.00 0.00 0.00 32 1012.8
20260507204104 62 136 2.0 2.0 0.00 0.00 0.00 30 1012.9
20260507203044 61 110 2.0 3.0 0.00 0.00 0.00 30 1013.1
20260507202044 61 113 1.0 2.0 0.00 0.00 0.00 30 1013.1
20260507201106 62 116 2.0 3.0 0.00 0.00 0.00 29 1013.4
20260507200046 61 122 0.0 1.0 0.00 0.00 0.00 30 1013.4
20260507195026 62 117 1.0 2.0 0.00 0.00 0.00 29 1013.6
20260507194108 62 115 1.0 3.0 0.00 0.00 0.00 29 1013.8
20260507193048 63 112 1.0 3.0 0.00 0.00 0.00 29 1013.8
20260507192048 61 142 1.0 2.0 0.00 0.00 0.00 29 1013.8
20260507191110 62 126 1.0 3.0 0.00 0.00 0.00 29 1014.0
20260507190050 62 92 1.0 3.0 0.00 0.00 0.00 28 1014.0
20260507185030 62 112 1.0 3.0 0.00 0.00 0.00 28 1014.1
20260507184041 62 118 2.0 3.0 0.00 0.00 0.00 27 1014.1
20260507183021 61 112 1.0 3.0 0.00 0.00 0.00 30 1014.3
20260507182103 60 118 1.0 2.0 0.00 0.00 0.00 32 1014.4
20260507181043 61 135 1.0 2.0 0.00 0.00 0.00 29 1014.4
20260507180125 61 117 1.0 1.0 0.00 0.00 0.00 30 1014.4
20260507175034 60 116 1.0 2.0 0.00 0.00 0.00 30 1014.9
20260507174136 59 116 1.0 2.0 0.00 0.00 0.00 31 1014.9
20260507173056 59 118 2.0 3.0 0.00 0.00 0.00 32 1014.9
20260507172037 60 149 1.0 3.0 0.00 0.00 0.00 32 1015.2
20260507171047 59 149 2.0 3.0 0.00 0.00 0.00 32 1015.2
20260507170027 59 116 1.0 3.0 0.00 0.00 0.00 31 1015.2
20260507165109 59 116 1.0 2.0 0.00 0.00 0.00 32 1015.5
20260507164049 59 116 1.0 2.0 0.00 0.00 0.00 32 1015.6
20260507163029 58 133 2.0 3.0 0.00 0.00 0.00 33 1015.7
20260507162043 58 131 2.0 5.0 0.00 0.00 0.00 32 1015.8
20260507161051 59 155 1.0 5.0 0.00 0.00 0.00 31 1015.8
20260507155043 58 129 1.0 3.0 0.00 0.00 0.00 30 1015.6
20260507154054 58 120 1.0 3.0 0.00 0.00 0.00 30 1015.8
20260507153104 58 138 1.0 3.0 0.00 0.00 0.00 31 1015.8
20260507152044 57 131 1.0 2.0 0.00 0.00 0.00 31 1015.8
20260507151024 57 145 1.0 3.0 0.00 0.00 0.00 31 1015.8
20260507150106 57 143 2.0 5.0 0.00 0.00 0.00 31 1015.7
20260507145046 57 154 1.0 2.0 0.00 0.00 0.00 32 1015.7
20260507144057 56 141 1.0 2.0 0.00 0.00 0.00 32 1015.7
20260507143038 55 136 1.0 3.0 0.00 0.00 0.00 31 1015.8
20260507142119 54 136 1.0 3.0 0.00 0.00 0.00 34 1015.8
20260507141059 55 134 1.0 3.0 0.00 0.00 0.00 34 1015.8
20260507140059 54 118 1.0 3.0 0.00 0.00 0.00 36 1015.8
20260507135020 54 118 1.0 3.0 0.00 0.00 0.00 36 1015.8
20260507134100 54 122 1.0 3.0 0.00 0.00 0.00 36 1015.7
20260507133101 54 130 1.0 2.0 0.00 0.00 0.00 37 1015.7
20260507132021 54 130 0.0 1.0 0.00 0.00 0.00 38 1015.6
20260507131123 55 130 0.0 1.0 0.00 0.00 0.00 39 1015.7
20260507130042 53 128 0.0 1.0 0.00 0.00 0.00 43 1015.9
20260507125023 52 128 0.0 1.0 0.00 0.00 0.00 45 1015.7
20260507124105 51 0.0 0.0 0.00 0.00 0.00 49 1015.8
20260507123045 49 0.0 0.0 0.00 0.00 0.00 58 1015.6
20260507122057 46 0.0 0.0 0.00 0.00 0.00 77 1015.5
20260507121036 41 0.0 0.0 0.00 0.00 0.00 85 1015.4
20260507120108 38 0.0 0.0 0.00 0.00 0.00 85 1015.4
20260507115058 37 0.0 0.0 0.00 0.00 0.00 85 1015.4
20260507114058 36 0.0 0.0 0.00 0.00 0.00 86 1015.1
20260507113017 35 0.0 0.0 0.00 0.00 0.00 85 1015.1
20260507112059 34 0.0 0.0 0.00 0.00 0.00 85 1015.1
20260507111100 33 0.0 0.0 0.00 0.00 0.00 85 1015.0
20260507110111 33 0.0 0.0 0.00 0.00 0.00 85 1015.1
20260507105031 32 0.0 0.0 0.00 0.00 0.00 85 1015.1
20260507104132 32 0.0 0.0 0.00 0.00 0.00 84 1015.1
20260507103053 32 0.0 0.0 0.00 0.00 0.00 84 1015.1
20260507102104 32 0.0 0.0 0.00 0.00 0.00 84 1015.2
20260507101043 32 0.0 0.0 0.00 0.00 0.00 84 1015.1
20260507100023 32 0.0 0.0 0.00 0.00 0.00 84 1015.1
20260507095035 32 0.0 0.0 0.00 0.00 0.00 84 1015.1
20260507094117 32 0.0 0.0 0.00 0.00 0.00 84 1015.0
20260507093056 33 0.0 0.0 0.00 0.00 0.00 83 1014.8
20260507092036 33 0.0 0.0 0.00 0.00 0.00 83 1014.8
20260507091139 33 0.0 0.0 0.00 0.00 0.00 83 1014.9
20260507090119 33 0.0 0.0 0.00 0.00 0.00 82 1015.1
20260507085039 33 0.0 0.0 0.00 0.00 0.00 82 1015.0
20260507084019 33 0.0 0.0 0.00 0.00 0.00 82 1015.0
20260507083100 33 0.0 0.0 0.00 0.00 0.00 81 1014.8
20260507082112 34 0.0 0.0 0.00 0.00 0.00 81 1014.8
20260507081111 34 0.0 0.0 0.00 0.00 0.00 80 1014.8
20260507080135 35 0.0 0.0 0.00 0.00 0.00 80 1014.8
20260507075043 35 0.0 0.0 0.00 0.00 0.00 79 1014.9
20260507074023 35 0.0 0.0 0.00 0.00 0.00 78 1014.9
20260507073104 35 0.0 0.0 0.00 0.00 0.00 78 1014.8
20260507072045 36 0.0 0.0 0.00 0.00 0.00 77 1014.9
20260507071026 37 0.0 0.0 0.00 0.00 0.00 76 1014.9
20260507070127 37 0.0 0.0 0.00 0.00 0.00 75 1015.0
20260507065047 38 0.0 0.0 0.00 0.00 0.00 74 1015.1
20260507064047 38 0.0 0.0 0.00 0.00 0.00 73 1015.1
20260507063038 39 0.0 0.0 0.00 0.00 0.00 71 1015.2
20260507062018 40 0.0 0.0 0.00 0.00 0.00 70 1015.3
20260507061100 41 0.0 0.0 0.00 0.00 0.00 68 1015.4
20260507060040 42 0.0 0.0 0.00 0.00 0.00 68 1015.3
20260507055019 42 0.0 0.0 0.00 0.00 0.00 67 1015.2
20260507054031 43 0.0 0.0 0.00 0.00 0.00 67 1015.1
20260507053113 43 123 0.0 2.0 0.00 0.00 0.00 68 1015.2
20260507052022 42 0.0 0.0 0.00 0.00 0.00 70 1015.1
20260507051104 42 0.0 0.0 0.00 0.00 0.00 71 1015.0
20260507050019 42 0.0 0.0 0.00 0.00 0.00 74 1014.9
20260507045055 41 0.0 0.0 0.00 0.00 0.00 75 1015.0
20260507044136 41 0.0 0.0 0.00 0.00 0.00 77 1015.0
20260507043116 41 0.0 0.0 0.00 0.00 0.00 78 1014.9
20260507042056 40 0.0 0.0 0.00 0.00 0.00 79 1014.8
20260507041036 40 0.0 0.0 0.00 0.00 0.00 79 1014.8
20260507040048 40 0.0 0.0 0.00 0.00 0.00 78 1014.9
20260507035059 40 0.0 0.0 0.00 0.00 0.00 77 1015.0
20260507034039 40 0.0 0.0 0.00 0.00 0.00 76 1014.8
20260507033049 41 0.0 0.0 0.00 0.00 0.00 75 1014.9
20260507032029 41 0.0 0.0 0.00 0.00 0.00 74 1014.7
20260507031111 42 0.0 0.0 0.00 0.00 0.00 73 1014.7
20260507030051 42 0.0 0.0 0.00 0.00 0.00 72 1014.7
20260507025032 43 0.0 0.0 0.00 0.00 0.00 70 1014.6
20260507024114 43 0.0 0.0 0.00 0.00 0.00 68 1014.7
20260507023053 44 0.0 0.0 0.00 0.00 0.00 67 1014.6
20260507022104 45 0.0 0.0 0.00 0.00 0.00 65 1014.5
20260507021045 45 0.0 0.0 0.00 0.00 0.00 63 1014.5
20260507020025 46 0.0 0.0 0.00 0.00 0.00 62 1014.5
20260507015127 47 0.0 0.0 0.00 0.00 0.00 61 1014.3
20260507014047 47 0.0 0.0 0.00 0.00 0.00 59 1014.4
20260507013027 48 0.0 0.0 0.00 0.00 0.00 58 1014.2
20260507012109 49 0.0 0.0 0.00 0.00 0.00 58 1014.3
20260507011109 49 0.0 0.0 0.00 0.00 0.00 58 1014.1
20260507010029 49 0.0 0.0 0.00 0.00 0.00 57 1014.1
20260507005111 50 0.0 0.0 0.00 0.00 0.00 54 1013.9
20260507004051 51 0.0 0.0 0.00 0.00 0.00 52 1013.8
20260507003031 52 125 0.0 1.0 0.00 0.00 0.00 49 1013.6
20260507002112 52 124 0.0 1.0 0.00 0.00 0.00 47 1013.6
20260507001052 53 124 0.0 2.0 0.00 0.00 0.00 46 1013.3
20260507000033 53 0.0 0.0 0.00 0.00 0.00 45 1013.3
20260506235134 53 132 0.0 2.0 0.00 0.00 0.00 44 1013.2
20260506234054 54 133 2.0 5.0 0.00 0.00 0.00 43 1013.3
20260506233035 54 151 0.0 2.0 0.00 0.00 0.00 43 1013.3